Погода в Абае

Казахстан     49°37′56″N   72°51′34″E
темп.,
°C
ветер,
м/с
пор.,
м/с
влажн.,
%
обл.,
%
осадки,
мм/ч
давл.,
гПа
погр.,
м
25 февраля, чт
чт2500:00−22юз91790100 0.1 10201107
03:00−22юз91889100 0.1 10201342
06:00−22юз111888100 0.1 10201319
09:00−23юз111787100 0.1 10221102
12:00−23зюз121688100 0.1 10241086
15:00−23зюз111588100 0.1 10271108
18:00−23зюз91491100 0.2 10311080
21:00−24зюз81393100 0.1 1034703
26 февраля, пт
пт2600:00−27зюз61295100 0.1 1037361
03:00−30юз599799 0.0 1039169
06:00−30юз5996100 0.0 1041209
09:00−31юз489686 0.0 1042164
12:00−26юз589273 0.0 1042377
15:00−23юз579085 0.0 1041457
18:00−25юз349383 0.0 104057
21:00−28ююз34940 0.0 104227
27 февраля, сб
сб2700:00−29ю34940 0.0 104221
03:00−30ююз34941 0.0 104124
06:00−30ю339123 0.0 104019
09:00−25ю358993 0.0 1038134
12:00−19ююз478497 0.0 1036339
15:00−15ююз578383 0.0 1034487
18:00−17ююз459059 0.0 103490
21:00−19ю5108960 0.0 1033149
28 февраля, вс
вс2800:00−16ю6138179 0.0 1032334
03:00−13ю81678100 0.0 1028495
06:00−11ю101882100 0.0 1024719
09:00−8ююз132292100 0.9 1021818
12:00−6ююз142192100 2.8 1019830
15:00−4ююз132093100 1.8 1017851
18:00−3юз111994100 3.4 1016809
21:00−3юз111794100 1.5 1016776
1 марта, пн
пн100:00−3ююз111995100 3.1 1016722
03:00−3юз111895100 1.6 1016787
06:00−3юз101795100 3.0 1016676
09:00−3юз91595100 1.4 1016662
12:00−2юз101595100 3.1 1016734
15:00−1юз101595100 1.3 1016714
18:00−2юз91494100 2.4 1016703
21:00−4юз71493100 0.1 1018471